Theta_e
355 364 367 364 364 365 365 364 363 362 362 361 361 362 361 361 361 362 362 363 363 363 361 360 360 359 357 356 356 357 357 356 354 354 353 352 352 354 355 352 350 348 349
360 364 365 363 363 365 365 365 364 362 361 361 362 361 361 361 362 362 362 362 363 362 360 359 359 358 356 355 357 357 356 356 356 355 355 354 353 352 353 354 354 353 354
361 366 366 363 363 363 364 364 363 362 362 363 362 361 361 361 362 362 362 363 364 361 360 358 358 356 355 354 355 355 355 355 355 354 355 361 357 354 354 352 353 354 354
362 365 364 363 362 362 363 363 363 363 363 363 362 361 361 361 361 361 362 363 363 361 359 356 355 354 354 354 353 353 355 355 353 351 355 358 357 354 353 356 356 356 355
362 364 365 363 362 361 362 362 362 362 362 363 362 361 361 361 361 361 362 363 362 359 357 355 354 353 353 353 353 353 353 352 347 350 353 359 353 354 357 356 356 352 351
360 362 363 362 361 361 362 362 362 362 362 362 361 361 361 361 360 361 362 362 361 360 357 356 354 353 352 351 351 351 354 348 351 354 355 349 354 357 356 352 350 348 346
358 361 361 362 361 361 361 361 361 361 361 361 361 361 361 360 361 361 362 361 361 359 357 354 353 353 353 351 350 351 353 347 349 352 351 353 357 355 351 349 348 346 344
357 361 360 360 361 360 360 360 360 360 360 360 360 360 360 360 360 361 361 361 360 359 356 353 352 352 351 351 350 352 353 347 346 349 350 355 354 353 350 347 345 343 340
359 359 358 358 360 360 359 359 359 359 359 359 359 359 359 360 360 361 361 361 360 358 356 354 352 351 350 349 349 351 352 348 347 350 350 356 354 350 346 343 342 338 337
357 356 358 357 357 356 357 359 358 358 358 358 358 358 359 360 360 360 358 359 357 356 354 353 351 350 349 348 348 349 349 346 345 347 354 356 352 345 342 340 337 337 336
353 354 356 356 355 355 353 357 358 358 358 358 358 358 355 352 356 357 355 357 355 353 352 351 350 349 348 347 347 347 349 351 350 349 355 352 349 343 340 337 337 336 336
343 352 354 354 354 353 351 354 354 354 353 352 352 353 351 354 355 352 355 356 354 353 352 350 348 347 344 343 343 343 345 349 350 353 354 350 346 340 338 337 336 335 335
340 346 352 354 354 354 350 352 351 352 354 354 354 354 353 352 353 351 353 352 353 352 348 347 345 342 341 341 344 348 349 349 351 354 351 350 346 339 337 336 335 334 334
342 349 354 353 352 355 352 350 350 350 352 351 352 353 351 349 353 352 350 350 350 349 347 347 342 342 342 344 346 347 346 350 354 354 349 348 345 339 336 335 333 333 333
333 348 354 354 351 353 353 350 349 349 349 350 352 352 351 350 351 349 348 347 346 347 344 342 341 341 344 346 347 349 350 352 353 350 348 346 345 341 335 333 332 332 332
333 345 355 353 353 351 352 351 350 350 350 350 350 350 351 352 351 347 347 345 347 348 343 342 343 347 349 352 351 351 352 354 353 351 346 342 343 340 334 331 330 329 330
333 342 354 356 354 352 350 351 351 349 349 348 349 351 351 353 352 349 345 345 347 347 346 343 344 346 349 353 352 353 352 352 347 348 345 340 336 336 333 330 329 328 329
329 336 352 355 354 355 352 351 350 349 348 347 349 349 351 352 351 349 346 347 350 348 346 344 345 346 347 349 350 350 350 350 348 347 343 340 337 334 334 330 329 328 329
325 333 344 354 354 355 354 352 350 349 347 347 347 347 349 349 347 347 346 350 353 349 347 346 347 347 345 345 342 342 344 348 350 345 342 338 337 334 334 331 330 331 333
323 335 344 351 355 355 354 354 350 346 345 344 343 344 349 348 347 348 348 349 350 348 347 348 347 345 343 341 337 337 339 342 345 345 341 337 333 332 334 335 333 332 330
323 341 344 346 351 350 348 344 343 340 342 341 342 345 347 346 347 352 349 351 350 348 349 348 344 341 335 337 334 332 330 330 329 330 332 332 330 330 332 334 332 332 330
325 337 343 346 349 345 344 347 347 342 342 342 343 345 346 346 348 350 352 351 351 346 347 344 342 337 335 335 334 330 325 324 325 325 326 327 328 329 331 331 331 329 328
324 336 343 345 350 347 347 349 346 345 343 340 341 343 345 344 347 351 352 351 350 347 343 343 343 342 335 332 334 334 323 322 320 323 323 324 327 328 329 329 326 325 325
320 332 341 345 347 349 348 344 342 341 337 338 340 343 344 345 345 351 353 351 349 345 342 343 343 342 338 331 324 326 327 330 321 317 321 322 323 322 324 323 322 320 320
319 327 338 343 344 344 341 341 341 344 343 340 341 343 347 347 347 349 351 349 345 342 344 343 341 338 334 330 325 321 322 322 323 320 315 317 322 321 320 320 319 317 316
316 322 334 341 341 342 339 341 340 335 338 339 339 340 342 345 345 348 347 346 344 342 338 338 335 332 329 326 323 322 320 320 319 318 316 317 318 320 321 320 317 314 313
Wind_Speed
11 20 20 21 20 17 19 21 22 22 21 22 23 21 22 21 19 19 18 15 14 13 13 13 13 11 11 11 11 10 10 8 7 7 6 5 4 4 4 2 3 4 4
16 21 21 22 21 20 18 20 22 22 20 21 22 22 23 22 20 18 17 15 14 13 13 12 12 11 11 11 10 9 9 7 5 5 4 5 4 4 4 5 6 8 6
18 18 19 20 20 19 19 19 22 22 22 20 20 21 23 22 20 19 17 14 14 15 12 12 11 11 10 9 9 8 7 5 3 1 1 0 3 4 6 8 8 8 8
19 17 18 19 19 19 19 19 21 20 21 20 19 19 20 21 20 19 17 14 13 13 13 11 11 11 10 9 8 6 5 3 3 1 3 2 4 8 8 8 9 11 10
16 18 18 20 20 19 19 20 20 20 19 19 20 19 18 18 18 16 16 13 12 14 13 12 9 9 9 9 8 5 4 4 2 3 5 6 5 9 9 10 10 12 13
13 16 19 19 19 19 18 19 20 20 19 19 19 18 18 18 17 16 15 14 12 12 13 12 10 9 8 8 7 6 5 5 2 8 8 8 7 9 11 12 12 11 12
11 12 16 17 19 19 18 17 18 19 19 19 19 19 17 15 15 15 14 13 12 11 12 12 11 8 8 7 7 5 5 5 4 7 7 6 9 10 11 11 11 11 11
9 12 13 14 16 18 17 18 17 16 15 16 17 17 17 15 14 13 13 13 12 10 10 11 11 9 7 7 6 5 5 3 4 6 6 6 9 10 11 10 11 10 10
10 11 11 12 13 15 16 17 17 18 16 14 14 15 15 14 12 11 11 10 10 9 9 9 9 9 8 6 5 4 4 2 4 4 5 5 10 11 10 10 10 9 8
10 9 11 12 13 12 12 14 16 17 17 16 15 12 13 13 11 10 9 8 8 8 8 8 8 8 7 6 5 4 2 3 4 5 4 8 10 10 9 9 8 8 9
7 8 9 11 11 11 11 12 13 16 15 16 14 13 11 10 12 12 6 8 7 7 6 7 7 6 5 5 3 3 5 2 3 4 5 10 10 10 8 8 8 9 11
3 7 8 10 10 11 9 12 11 11 10 11 12 13 10 9 8 8 9 8 6 5 5 5 5 5 5 3 4 5 3 2 3 5 6 10 9 9 7 7 9 9 9
6 5 9 8 11 11 10 9 6 7 7 8 12 12 10 8 8 6 5 6 5 6 4 5 5 4 4 4 3 2 2 4 5 4 9 10 8 8 7 8 8 6 7
11 13 12 11 10 12 8 8 9 8 9 8 10 12 9 7 8 7 5 5 4 3 3 2 3 3 5 5 3 3 5 5 5 4 7 9 7 7 6 6 5 5 6
12 15 19 17 11 11 12 9 9 9 9 10 10 11 9 9 8 7 6 5 4 3 4 4 4 4 4 4 4 3 6 7 7 4 5 10 7 6 6 4 4 4 5
12 15 18 21 19 14 12 12 10 9 10 10 10 10 12 9 8 8 7 6 4 4 4 4 4 3 2 3 3 6 6 7 7 6 5 5 6 5 3 3 2 2 3
13 13 18 18 21 19 14 14 12 10 10 10 10 11 13 11 9 8 7 5 5 5 6 5 5 4 3 3 4 4 6 6 5 6 6 5 6 5 2 2 2 1 3
12 15 16 16 20 20 17 13 11 11 10 10 10 9 13 12 11 8 7 7 6 5 5 5 5 4 4 4 4 4 4 4 5 6 5 5 3 1 5 2 1 1 3
14 15 16 17 21 20 16 14 11 11 9 9 8 9 13 13 12 9 7 7 8 6 6 5 5 5 5 5 5 3 3 2 3 3 5 5 3 2 1 3 3 4 6
10 14 16 16 19 19 14 12 9 9 9 8 8 9 13 11 13 10 7 7 7 6 6 6 7 6 5 5 4 4 4 3 2 2 2 2 1 2 2 2 2 2 7
9 13 17 17 17 13 13 12 10 11 10 9 8 11 12 12 13 11 8 8 7 8 8 9 8 9 6 5 5 4 5 5 5 3 2 0 2 2 1 1 2 3 2
10 12 14 18 17 14 11 12 8 10 9 9 10 11 12 12 13 11 10 9 9 6 10 11 10 7 4 4 2 3 3 3 3 4 3 2 2 2 1 3 4 5 5
9 13 15 17 17 17 17 10 8 8 5 9 11 10 11 13 13 12 11 10 10 8 9 11 10 8 6 3 1 1 3 4 5 2 4 4 3 2 3 5 7 7 7
14 12 14 15 17 12 13 10 13 11 11 8 10 11 11 15 15 14 13 11 10 7 8 8 7 6 5 5 4 2 2 1 3 4 3 4 4 6 6 5 6 7 9
16 13 13 15 14 15 12 11 11 13 10 7 9 11 11 11 14 14 12 11 10 8 9 10 7 6 4 5 4 4 3 3 3 1 3 4 3 4 5 4 5 5 8
15 16 13 16 15 14 13 15 15 14 11 11 11 10 11 9 11 12 12 10 10 10 9 9 8 7 6 6 4 4 3 1 2 0 2 3 3 3 3 3 5 6 7
Wind_Direction
188 164 159 145 139 143 145 144 143 143 146 147 149 148 139 137 140 139 138 137 136 133 131 127 125 120 116 116 118 119 120 126 130 128 124 118 98 71 89 56 349 12 359
162 163 157 147 143 144 146 144 141 140 143 148 148 148 140 141 144 141 141 141 139 136 134 133 131 128 125 128 125 121 123 125 126 120 118 129 106 88 61 40 21 20 350
155 159 153 146 143 143 144 145 138 138 142 145 147 149 142 144 146 145 145 145 144 140 140 140 137 133 131 127 124 120 121 121 112 117 174 218 83 74 46 39 37 30 27
149 156 154 149 143 143 142 145 136 138 140 143 146 147 145 146 149 147 145 147 145 143 141 140 138 136 131 125 122 117 104 72 37 342 208 104 109 73 56 51 48 42 23
158 155 152 150 145 144 146 141 138 139 141 142 145 145 145 147 147 144 143 145 147 145 142 137 137 133 131 126 116 97 66 58 34 231 135 104 89 73 65 49 53 46 38
165 155 147 146 144 144 148 142 140 141 142 144 143 144 148 148 147 144 143 145 149 148 144 140 137 129 127 124 115 98 73 56 242 104 103 99 79 78 68 58 51 47 40
161 162 153 143 141 142 145 143 141 143 144 144 144 144 146 148 146 143 143 147 147 149 144 135 131 122 122 121 113 92 72 70 104 99 104 97 85 81 74 67 62 55 50
162 161 156 149 140 140 144 144 142 140 140 142 144 145 145 147 146 143 144 147 146 143 141 134 128 124 117 114 117 111 91 43 127 107 107 100 91 88 83 78 70 62 51
156 157 155 156 142 139 144 145 144 141 141 141 144 145 143 144 143 142 143 142 140 137 131 127 127 126 122 124 129 117 103 112 137 126 133 105 95 95 94 83 74 66 56
154 158 161 156 154 156 152 147 145 142 143 142 143 145 143 139 135 132 131 135 142 135 129 127 125 126 132 140 150 140 129 175 165 161 116 97 114 112 98 90 85 73 55
149 154 155 159 153 156 158 153 144 144 142 140 143 140 142 166 164 158 134 138 146 137 134 128 121 133 140 142 173 180 219 185 160 148 124 128 126 116 104 97 87 60 57
131 154 146 153 152 163 161 159 159 158 165 164 165 164 167 168 169 172 149 147 147 140 143 128 123 136 199 164 168 195 226 195 165 150 115 142 136 120 112 95 72 60 59
181 169 161 152 156 175 165 162 163 167 167 169 171 169 165 165 164 175 161 169 171 171 185 179 162 183 171 194 181 188 198 173 148 150 139 151 140 135 108 87 78 71 64
192 182 167 164 157 176 169 172 169 176 175 173 179 174 169 170 171 171 173 170 182 175 151 185 176 174 191 207 210 210 189 165 157 159 148 150 148 124 109 102 97 84 62
218 210 179 169 161 170 178 174 182 188 186 182 178 179 185 177 173 169 166 177 172 156 160 184 187 190 190 198 195 190 164 169 162 139 164 163 158 137 117 138 106 89 62
221 215 195 178 167 171 178 178 184 193 190 190 183 180 193 185 175 170 169 174 176 178 176 184 184 183 208 236 185 174 167 157 162 158 159 158 161 124 139 112 115 81 48
216 216 200 187 175 169 174 180 187 186 196 194 188 179 194 189 180 174 174 179 176 183 190 185 193 201 204 147 124 150 146 147 167 162 178 177 156 135 106 142 146 93 35
205 213 208 185 181 176 173 180 190 185 195 202 191 177 190 189 182 188 178 176 177 182 190 187 186 187 168 161 124 115 138 154 177 179 187 191 191 192 164 182 198 322 344
213 202 211 196 185 177 175 178 176 181 193 202 200 186 186 188 185 190 196 179 179 185 193 189 187 173 157 141 114 110 76 176 179 174 184 194 189 241 233 124 23 359 350
223 209 199 199 189 178 169 170 166 172 187 197 205 202 184 190 188 185 185 189 186 185 166 158 148 145 144 125 114 74 46 58 85 121 186 213 186 240 229 256 282 87 13
214 196 198 199 189 183 179 175 179 172 188 175 203 203 194 193 191 186 185 190 196 188 160 150 142 138 114 133 131 103 77 73 68 55 19 279 212 243 292 288 301 1 7
199 210 200 205 194 183 188 184 182 181 184 181 191 195 200 195 196 192 188 185 186 166 153 158 158 149 130 193 184 142 168 157 111 56 41 35 330 307 294 63 45 42 13
212 201 202 207 208 196 190 185 138 167 120 176 195 193 194 197 202 200 185 179 176 186 168 164 166 174 162 158 218 286 175 226 160 119 66 24 16 28 65 84 64 49 36
245 207 198 206 207 206 189 181 182 174 187 186 191 189 187 189 198 196 194 182 175 173 157 165 168 175 176 153 128 92 41 11 198 174 144 79 83 75 67 73 66 50 29
246 232 204 196 198 196 184 186 190 184 192 173 182 178 190 182 198 193 189 181 165 170 157 156 155 164 160 143 154 149 114 116 77 271 198 164 128 90 64 61 41 32 25
237 235 211 202 189 192 181 181 185 182 185 181 176 172 181 173 183 194 185 177 159 146 154 136 129 133 108 113 123 116 133 103 101 36 236 209 271 133 90 53 42 24 15